This is the latest recevied weather packets stored in our database for station/object AI5BL. If no packets are shown the sender has not sent any weather packets the latest 10 day(s).
| Time | Temp. | Humidity | Pressure | Rain* | Wind** | Luminosity | Snow |
|---|---|---|---|---|---|---|---|
| 1777929237 | 25.56° C | 43% | 1016.1 hPa | 0 mm | - | 154 W/m² | - |
| 1777928935 | 25.56° C | 50% | 1016.2 hPa | 0 mm | - | 99 W/m² | - |
| 1777928631 | 25.56° C | 45% | 1016.2 hPa | 0 mm | - | 124 W/m² | - |
| 1777928329 | 25.56° C | 44% | 1016.2 hPa | 0 mm | - | 63 W/m² | - |
| 1777928026 | 25.56° C | 51% | 1016.5 hPa | 0 mm | - | 60 W/m² | - |
| 1777927724 | 25.56° C | 42% | 1016.2 hPa | 0 mm | - | 75 W/m² | - |
| 1777927423 | 25.56° C | 45% | 1016.6 hPa | 0 mm | - | 61 W/m² | - |
| 1777927122 | 25.56° C | 43% | 1016.5 hPa | 0 mm | - | 185 W/m² | - |
| 1777926818 | 25.56° C | 40% | 1016.9 hPa | 0 mm | - | 130 W/m² | - |
| 1777926514 | 25.56° C | 41% | 1016.7 hPa | 0 mm | - | 187 W/m² | - |
| 1777926211 | 25.56° C | 47% | 1016.9 hPa | 0 mm | - | 131 W/m² | - |
| 1777925908 | 25.56° C | 39% | 1016.7 hPa | 0 mm | - | 77 W/m² | - |
| 1777925605 | 25.56° C | 42% | 1017.1 hPa | 0 mm | - | 137 W/m² | - |
| 1777925303 | 26.67° C | 42% | 1016.9 hPa | 0 mm | - | 66 W/m² | - |
| 1777924999 | 26.11° C | 41% | 1017 hPa | 0 mm | - | 227 W/m² | - |
| 1777924695 | 26.67° C | 41% | 1017.2 hPa | 0 mm | - | 597 W/m² | - |
| 1777924391 | 26.67° C | 44% | 1017.2 hPa | 0 mm | - | 615 W/m² | - |
| 1777924088 | 27.78° C | 42% | 1017.3 hPa | 0 mm | - | 533 W/m² | - |
| 1777923784 | 27.78° C | 38% | 1017.4 hPa | 0 mm | - | 736 W/m² | - |
| 1777923480 | 27.22° C | 41% | 1017.4 hPa | 0 mm | - | 757 W/m² | - |
| 1777923178 | 26.67° C | 42% | 1017.6 hPa | 0 mm | - | 758 W/m² | - |
| 1777922876 | 27.22° C | 42% | 1017.4 hPa | 0 mm | - | 781 W/m² | - |
| 1777922574 | 27.22° C | 42% | 1017.5 hPa | 0 mm | - | 782 W/m² | - |
| 1777922273 | 27.22° C | 36% | 1017.5 hPa | 0 mm | - | 793 W/m² | - |
| 1777921969 | 27.22° C | 44% | 1017.6 hPa | 0 mm | - | 796 W/m² | - |
* Rain latest hour (hover to see other rain measurements)
** Current wind speed in m/s (hover to see current wind gust speed)